Погода в Черниговском

Россия / Краснодарский край     44°15′04″N   39°45′56″E
темп.,
°C
ветер,
м/с
пор.,
м/с
влажн.,
%
обл.,
%
осадки,
мм/ч
давл.,
гПа
погр.,
м
19 сентября, вс
вс1900:00+13ю2287100 0.0 101435
03:00+14ю2373100 0.0 101340
06:00+13ю327081 0.0 101334
09:00+20сз015261 0.0 1012327
12:00+20з1462100 0.0 1013457
15:00+20ююв1464100 0.1 1013373
18:00+17ю237189 0.0 101359
21:00+15ю368365 0.4 1014171
20 сентября, пн
пн2000:00+14ю367613 0.1 1013147
03:00+15ю3772100 0.1 1013286
06:00+13ю34808 0.0 101479
09:00+19ююз395998 0.1 10141162
12:00+21ююз4944100 0.0 10141635
15:00+22зюз493719 0.0 10141988
18:00+16ююз226542 0.0 101530
21:00+14ю346282 0.0 101655
21 сентября, вт
вт2100:00+14ю32679 0.1 101634
03:00+15ююв115999 0.1 101418
06:00+13ю22668 0.0 101419
09:00+20св0152100 0.0 1012270
12:00+26зсз1534100 0.0 10101615
15:00+15ю3694100 3.1 1012247
18:00+15з129220 0.1 101394
21:00+12с239999 0.4 1016293
22 сентября, ср
ср2200:00+11ссз1299100 0.2 1017161
03:00+10с2398100 0.3 1017259
06:00+9св119378 0.0 101883
09:00+10ссв228267 0.0 1017588
12:00+12ссз126884 0.0 1016925
15:00+15с235465 0.1 10151212
18:00+11ссв127294 0.0 101680
21:00+9ююз118050 0.0 101614
23 сентября, чт
чт2300:00+7ю119113 0.0 101614
03:00+6юв119491 0.0 101411
06:00+8всв0188100 0.0 101343
09:00+9з1292100 0.4 1012121
12:00+9ююв1198100 4.3 101195
15:00+10с1198100 7.4 101061
18:00+9св1299100 3.6 101099
21:00+9с12100100 7.3 1010155